Theta_e
355 354 355 354 354 354 354 354 354 350 345 344 344 340 335 331 326 324 324 322 329 336 342 337 336 349 346 344 346 349 348 351 352 349 351 351 350 348 346 346 345 345 345 346 346 347 348 348 348 349 349 348 349 351 351 350 350 351 350 351 351 351 352 350 349 349 349 350 349 348 348 349 350 351
352 353 353 355 353 354 353 353 353 351 348 348 348 344 340 336 331 327 325 324 329 333 338 339 337 342 346 349 350 348 347 351 352 349 350 350 350 345 344 345 344 344 344 343 343 344 345 347 347 345 344 344 346 348 349 349 349 350 350 350 351 351 351 349 348 348 348 348 349 348 349 350 350 349
353 351 350 351 352 353 353 353 352 352 350 347 346 345 346 339 337 333 328 326 329 337 336 339 345 346 346 350 349 351 350 353 353 349 348 349 350 348 347 345 344 343 342 340 339 339 340 340 340 339 340 341 342 344 345 346 346 348 347 348 348 348 348 347 346 347 347 346 347 347 348 349 349 348
354 352 351 351 352 353 353 353 353 353 354 351 348 348 347 342 340 339 333 331 333 336 339 340 344 348 348 348 348 348 349 352 354 350 350 350 351 350 349 349 345 342 340 340 339 338 336 336 336 337 339 340 342 344 344 344 345 345 344 343 343 343 344 343 343 344 344 345 345 345 345 346 347 347
353 352 351 351 351 352 353 352 353 353 353 352 350 349 347 346 343 340 337 334 336 339 340 343 345 347 348 349 346 346 348 349 350 352 351 351 349 349 348 349 347 344 341 339 338 337 336 335 335 336 338 339 341 343 344 344 342 341 339 339 337 337 339 339 339 341 342 342 342 343 343 344 345 345
355 352 350 351 351 351 351 351 351 352 351 352 351 349 349 346 347 344 341 338 338 338 339 342 345 347 351 350 345 347 350 350 351 351 352 353 351 350 350 348 349 346 342 339 337 336 335 335 335 335 336 337 338 338 339 338 335 334 334 332 331 331 332 332 335 337 337 338 340 341 341 342 343 343
353 352 352 351 351 352 351 350 351 351 350 350 350 350 351 350 349 349 346 342 339 339 341 342 344 344 347 348 350 349 351 352 352 351 352 354 355 355 354 353 354 348 344 340 338 337 336 336 335 334 334 336 335 334 333 330 329 328 327 326 328 329 329 328 329 332 332 334 336 338 339 340 341 342
352 353 352 353 352 352 351 351 350 351 351 350 349 348 348 350 350 350 350 346 345 343 342 341 346 345 344 348 350 351 352 352 353 354 355 355 355 355 356 356 356 353 346 343 340 339 337 336 334 333 333 332 329 328 328 327 327 327 326 325 325 325 325 325 325 328 328 328 329 331 333 336 337 336
353 353 353 353 353 351 351 351 351 351 350 351 350 349 349 349 350 351 351 350 348 345 344 344 344 346 347 349 350 349 352 353 353 354 354 355 355 356 357 357 357 349 345 344 342 339 337 336 335 333 332 331 330 329 329 327 327 326 324 324 324 325 326 325 324 325 324 324 325 324 326 329 331 332
355 354 354 353 353 352 350 350 350 350 350 350 350 349 348 348 349 349 349 350 349 348 347 346 347 343 347 345 346 349 350 352 351 352 354 355 356 356 356 358 360 362 363 362 363 352 348 345 340 339 337 335 333 333 331 330 328 326 324 321 320 322 322 322 323 324 323 323 324 325 325 326 327 329
356 356 355 354 354 353 352 351 350 350 350 351 350 350 350 349 348 348 348 348 347 347 347 347 347 346 345 346 348 348 350 352 352 352 352 353 355 354 352 355 359 362 362 358 353 352 350 345 348 339 335 336 335 335 331 329 327 326 324 321 320 321 320 320 321 322 321 322 322 321 320 320 323 326
355 356 357 356 356 355 354 353 352 351 351 351 350 350 350 350 348 348 347 346 346 345 345 345 346 344 345 343 348 348 347 349 348 350 351 349 350 352 350 352 354 354 354 356 358 355 354 353 350 342 342 342 340 337 338 332 332 329 325 322 324 323 320 320 321 321 321 320 319 319 319 319 321 322
352 354 356 357 357 358 363 360 358 357 357 352 350 350 349 349 348 348 347 347 345 345 345 345 345 344 345 347 347 348 344 346 349 350 347 347 351 351 350 353 353 355 354 354 356 358 358 355 354 354 353 354 352 346 336 334 336 331 323 322 324 323 322 321 321 321 320 320 319 319 319 319 320 321
353 353 353 356 365 365 360 354 350 347 349 356 355 352 350 350 349 348 347 347 347 346 344 345 345 344 346 347 347 347 347 349 349 349 349 347 345 344 347 347 347 350 353 352 353 354 356 354 352 352 352 354 353 345 335 332 330 327 324 324 323 322 322 321 321 320 320 319 319 318 317 318 320 319
353 354 354 354 360 366 368 358 347 345 343 344 346 349 356 358 352 348 347 347 347 346 346 346 346 346 347 349 349 349 351 349 349 349 345 346 341 341 340 340 345 350 352 350 349 350 354 352 350 350 351 352 350 339 332 331 329 324 324 323 322 322 321 322 322 321 320 319 319 319 317 318 319 319
353 353 353 354 355 356 358 359 358 350 344 340 341 342 344 347 350 352 351 349 347 347 347 347 348 348 348 350 346 348 345 350 347 348 344 343 342 343 340 339 341 347 353 350 348 348 351 349 348 348 351 349 342 335 327 327 326 324 323 323 322 321 321 321 322 322 321 321 321 321 320 319 319 318
353 353 352 352 354 355 365 364 360 357 356 345 338 338 340 342 342 338 339 345 352 350 349 348 348 349 349 349 350 349 346 345 345 342 341 342 340 340 340 342 345 351 351 351 346 345 349 346 344 342 344 340 337 337 331 327 326 323 322 321 321 320 320 320 321 320 320 319 319 319 318 317 317 317
353 353 352 352 352 353 354 355 356 356 354 355 353 349 346 345 348 344 338 336 339 346 352 351 349 351 350 351 350 349 346 344 344 342 341 339 338 340 342 345 349 351 354 349 344 340 341 343 334 332 334 337 335 335 329 325 324 323 321 320 319 319 319 319 319 319 319 319 318 317 316 315 315 315
352 352 353 352 352 352 352 353 354 353 353 352 351 349 348 347 347 347 348 348 347 347 349 351 353 353 349 348 348 347 346 346 346 346 345 344 343 344 346 348 345 348 350 348 342 338 339 336 331 331 332 334 332 332 328 325 323 322 320 320 319 318 318 318 318 318 318 318 317 317 315 314 313 312
352 352 352 352 352 352 351 354 345 351 352 349 349 348 348 347 347 347 351 341 344 351 350 350 351 351 351 343 349 350 349 346 344 347 347 347 345 344 342 345 345 343 346 342 339 334 330 333 330 330 331 331 329 331 330 327 323 322 320 320 318 317 316 317 317 317 317 317 318 317 314 311 310 310
351 353 352 351 351 351 351 347 335 334 351 348 347 347 347 348 348 348 350 339 332 333 331 332 334 334 334 332 330 328 329 340 344 345 344 345 346 341 341 342 341 344 342 338 338 334 331 331 329 330 329 329 327 328 329 330 325 322 319 317 317 316 316 316 316 316 316 316 317 316 315 311 310 314
348 351 362 361 351 351 351 340 333 332 340 344 346 346 346 347 348 350 353 354 349 330 327 327 328 329 330 332 332 332 331 329 339 345 343 346 343 344 341 341 342 342 338 337 339 330 329 329 327 327 327 325 326 327 328 330 329 326 319 316 317 316 316 316 315 316 315 315 316 315 313 311 313 322
350 349 356 362 355 352 347 335 331 330 337 345 345 345 344 343 344 347 350 354 356 352 349 349 346 345 345 345 345 346 338 334 340 346 348 349 346 344 343 343 339 340 337 337 339 329 326 328 327 325 321 317 319 322 328 328 326 325 322 322 322 317 318 318 316 313 313 314 315 315 312 311 314 321
350 350 351 351 337 333 332 329 326 325 325 343 347 346 344 343 343 347 346 351 355 355 356 357 355 354 354 352 350 349 349 346 346 344 348 349 349 346 346 345 343 342 338 339 338 329 330 329 328 325 323 318 316 320 324 326 325 324 321 320 320 320 322 321 318 316 313 313 314 314 312 312 313 320
350 349 350 350 339 327 325 323 322 320 319 328 347 348 347 347 347 348 346 350 366 354 353 352 352 352 348 351 351 349 349 348 347 345 345 349 350 349 347 345 343 344 343 340 336 333 329 327 325 322 322 318 319 319 319 320 322 321 321 319 319 320 320 320 319 320 316 316 314 312 312 312 312 317
350 350 350 350 342 327 322 319 316 315 317 319 337 346 332 332 333 347 351 351 350 353 353 350 348 349 348 348 350 351 351 350 350 351 350 348 349 350 350 349 346 343 340 341 331 332 329 325 325 321 318 318 317 318 317 318 321 320 318 319 319 319 320 318 318 319 320 323 322 315 314 312 313 314
351 351 351 352 346 327 320 316 314 314 316 320 330 324 324 326 329 342 349 351 351 347 350 350 349 346 346 348 350 352 352 353 353 353 353 353 351 350 350 351 351 351 342 340 339 335 330 326 326 320 319 317 316 316 315 315 317 319 316 317 318 318 319 317 317 318 319 321 322 314 312 313 314 315
352 351 351 348 332 324 317 315 316 316 316 327 319 317 321 325 334 343 347 346 350 349 346 346 346 347 347 348 347 349 351 352 345 342 344 345 345 345 345 345 345 340 340 340 339 336 334 328 325 321 322 319 316 316 314 314 317 314 314 316 318 318 318 318 316 318 319 319 319 317 315 315 317 318
352 340 332 329 325 323 318 316 317 318 317 315 318 318 320 335 337 341 345 348 348 347 348 348 348 348 348 350 351 351 350 345 342 342 343 342 339 339 339 339 340 342 345 341 338 334 331 328 327 324 319 317 319 316 315 313 314 312 314 315 312 315 317 316 315 314 317 317 317 316 314 314 315 318
337 332 328 325 325 325 326 331 335 339 340 325 320 321 327 332 336 340 344 346 347 348 349 348 348 349 349 348 350 348 346 342 341 339 339 337 337 338 338 337 337 338 340 339 336 331 329 328 326 324 323 321 318 317 314 312 310 311 314 312 313 317 316 315 314 313 315 315 315 315 314 314 316 317
343 341 340 339 332 334 331 335 336 337 340 339 335 331 333 334 337 340 344 346 348 348 349 348 349 349 349 346 344 344 345 345 343 340 339 337 336 338 336 335 334 334 336 335 333 331 329 328 326 326 322 318 317 317 316 313 311 310 311 311 314 310 312 313 313 312 313 314 313 312 312 313 315 318
346 345 336 331 337 340 339 338 340 340 342 343 340 337 335 335 337 341 346 350 347 348 348 348 346 345 345 344 346 346 345 346 344 341 339 336 333 336 335 332 331 332 331 332 333 335 336 327 325 325 324 320 316 315 313 312 312 310 310 312 315 313 315 312 310 311 312 311 309 310 310 311 313 315
343 341 341 342 342 342 343 342 342 342 341 340 339 339 337 337 338 339 341 342 344 345 345 345 346 346 345 345 345 344 344 343 342 340 337 336 336 336 334 330 332 330 327 327 329 326 323 322 326 321 319 318 317 319 315 311 311 309 309 310 311 310 311 309 310 311 311 308 308 307 308 310 312 313
341 343 344 345 345 345 345 345 343 344 345 344 341 340 334 337 339 339 340 342 343 344 344 346 345 345 344 345 343 343 342 340 340 337 333 336 336 334 333 331 332 332 327 327 327 323 320 319 318 318 318 318 316 315 314 312 310 310 310 308 309 308 311 311 309 308 308 307 307 305 306 308 310 312
338 341 342 344 345 346 347 346 346 345 345 345 345 343 340 340 339 338 341 342 342 342 343 344 346 346 345 344 343 342 341 340 339 336 335 335 335 333 333 331 332 331 327 326 325 323 320 319 319 318 317 314 314 314 320 314 310 311 309 307 308 309 311 311 311 308 306 307 305 305 304 305 308 310
336 339 341 343 344 346 345 345 346 346 346 346 347 346 345 343 342 341 342 342 345 343 344 344 344 346 345 345 342 341 340 337 337 335 334 333 332 333 333 332 331 331 327 326 324 325 322 320 320 318 316 315 315 314 316 321 318 311 309 308 307 308 309 308 310 307 305 304 306 303 303 305 307 309
337 338 340 342 343 344 344 346 346 346 347 347 347 348 348 347 345 345 346 343 345 344 345 344 344 344 344 343 339 336 335 335 336 334 333 334 333 333 332 334 333 328 324 325 324 325 324 321 320 317 315 313 312 313 314 312 314 314 313 310 308 309 309 308 307 306 304 304 303 304 304 304 304 306
338 339 339 340 342 343 344 345 345 345 345 346 347 347 347 349 350 349 350 346 344 343 343 344 344 343 344 339 338 336 335 335 335 333 332 332 331 329 329 329 329 325 323 324 323 323 322 321 319 317 315 312 311 309 309 313 313 314 312 313 310 308 310 308 305 304 305 304 305 303 302 303 304 305
339 339 339 339 340 342 343 344 344 345 345 345 345 346 346 347 348 347 346 346 345 344 344 344 342 340 341 339 336 336 335 334 333 332 331 330 329 328 326 326 325 323 322 323 320 320 319 317 318 318 317 314 312 311 312 313 314 314 311 309 311 308 308 309 307 305 305 305 305 305 305 304 306 311
338 340 341 341 341 342 343 345 346 347 346 346 347 347 347 345 346 346 345 343 344 343 343 342 340 336 339 338 335 335 334 334 333 333 331 329 328 328 326 326 326 324 322 321 319 318 317 317 319 318 318 318 318 317 317 315 312 310 310 310 305 311 312 310 309 309 307 307 304 305 304 303 304 304
338 340 342 342 343 343 344 346 347 347 347 348 348 342 347 347 345 343 343 341 338 339 339 338 338 338 337 335 334 333 331 329 329 328 328 328 328 328 326 324 323 323 321 320 318 317 317 318 322 322 323 319 319 318 316 313 312 311 311 313 307 305 309 312 311 309 308 306 307 305 304 304 301 302
340 342 342 345 346 346 347 347 348 349 349 349 348 346 344 340 336 333 332 331 335 335 334 333 332 331 332 332 332 329 329 327 325 325 325 324 323 321 321 321 321 321 320 319 319 318 320 320 324 326 321 321 319 316 314 314 314 311 310 311 313 309 307 307 308 310 310 308 307 304 303 303 304 303
341 343 342 338 338 340 342 342 342 343 346 344 341 336 334 332 332 332 333 333 333 332 332 331 331 330 330 331 330 328 327 326 327 326 324 322 322 320 317 318 319 320 321 321 321 321 320 319 318 321 320 318 318 317 314 315 315 313 310 311 313 313 311 311 308 307 308 309 309 308 306 304 302 301
338 334 333 333 333 333 334 335 335 335 335 334 334 334 334 333 332 332 333 333 332 331 331 330 330 330 329 328 326 325 326 326 326 326 322 319 319 319 318 317 318 319 320 320 320 321 319 318 318 319 318 317 317 316 315 314 313 313 313 311 311 310 311 311 311 310 311 311 311 309 310 310 310 310
321 320 318 317 318 317 318 320 322 326 331 332 332 332 331 331 330 331 331 331 330 330 330 330 329 329 329 328 326 325 325 322 323 323 323 320 317 317 316 317 317 318 319 319 319 319 318 318 318 318 317 318 316 316 318 316 314 312 311 311 312 312 311 311 309 309 309 310 310 310 309 310 310 309
Wind_Speed
5 4 5 6 6 5 3 3 4 2 3 4 3 4 5 5 2 1 2 2 2 2 1 0 2 3 1 0 1 2 5 7 8 6 6 7 7 10 14 15 16 16 16 17 17 17 17 17 18 18 18 19 19 19 20 21 21 21 21 21 21 21 21 21 21 21 21 21 21 22 22 21 21 22
5 4 4 5 5 5 3 5 4 3 3 4 5 5 4 6 4 4 2 4 3 3 3 1 1 2 4 3 2 3 4 8 7 5 6 6 7 12 14 14 15 15 16 16 17 17 17 17 17 17 17 18 19 20 21 21 21 21 21 21 21 21 21 21 20 21 21 22 23 23 23 22 21 22
5 5 5 4 5 5 5 4 3 3 4 5 4 3 5 4 5 6 3 0 4 2 2 2 1 1 4 4 4 3 3 5 6 5 5 6 10 14 11 13 14 14 15 15 15 16 16 16 16 17 17 18 18 19 20 21 21 21 21 21 21 20 20 21 21 21 21 21 22 22 22 23 22 22
5 5 5 5 5 5 4 5 4 4 4 4 5 5 5 4 4 5 5 5 7 4 4 4 5 5 4 5 4 5 5 5 7 4 6 7 10 8 7 11 14 14 14 14 15 15 16 16 16 17 18 18 18 19 19 20 20 20 20 20 20 20 20 20 20 20 21 21 21 21 21 21 21 21
5 6 6 6 5 4 4 5 4 3 3 3 4 3 4 5 3 5 4 5 7 5 3 4 4 2 2 3 3 4 5 5 6 4 5 5 5 6 6 7 11 13 13 14 14 15 16 16 16 17 17 17 17 18 18 18 19 19 19 18 18 18 19 20 20 19 19 19 20 20 20 21 21 20
5 5 6 6 6 4 5 4 5 4 3 3 3 3 4 5 5 5 5 6 4 7 2 3 3 3 3 3 2 3 5 6 5 6 7 5 4 6 6 6 7 12 13 13 14 14 14 15 15 16 15 15 16 16 17 17 17 17 17 17 16 15 16 17 18 19 18 19 19 19 20 20 20 19
6 5 6 7 6 4 4 5 5 4 4 4 5 5 4 5 5 5 6 4 5 6 6 3 3 3 2 3 5 4 4 5 5 6 7 7 5 4 5 6 6 10 12 12 13 13 14 14 14 13 14 15 15 15 15 15 15 15 15 14 14 14 13 13 14 15 15 16 17 18 19 19 19 18
7 8 6 7 6 5 6 6 6 5 4 5 5 4 4 5 6 5 5 5 6 5 5 3 4 3 3 4 5 5 4 5 6 6 7 6 7 7 6 6 6 8 11 12 12 13 13 13 12 12 12 12 13 13 12 13 13 13 13 13 13 13 13 12 12 13 14 14 15 15 16 17 18 17
8 8 8 8 6 5 6 6 6 6 5 6 5 6 5 5 5 4 5 6 5 5 7 6 3 3 3 4 3 3 5 6 5 5 6 7 7 7 7 5 6 8 11 11 12 12 11 10 9 9 9 10 11 11 11 11 12 11 10 11 12 13 13 13 14 13 13 13 13 13 14 14 16 16
7 8 9 8 7 6 7 7 6 5 6 5 5 6 6 5 4 4 5 4 5 5 7 6 6 2 4 4 4 3 3 6 7 7 6 5 6 5 6 5 5 5 4 4 5 6 6 5 6 7 9 11 11 12 12 11 9 11 12 13 13 13 13 14 15 14 14 14 14 13 13 13 14 14
8 8 8 8 7 7 8 7 7 6 6 6 6 7 7 6 5 5 5 5 5 5 6 5 6 6 4 4 6 3 2 4 4 6 9 7 5 4 3 5 5 4 4 4 4 4 5 4 4 7 11 12 13 13 11 9 13 12 11 12 12 13 14 14 14 15 15 15 15 14 14 13 13 12
8 9 9 9 8 8 8 8 8 7 7 6 6 6 5 6 5 6 5 4 5 5 5 6 7 5 5 3 4 2 2 4 3 4 5 9 8 6 3 3 3 4 3 4 3 3 3 4 6 8 9 10 12 11 8 11 10 10 10 10 11 12 13 13 14 15 16 16 16 16 15 15 13 12
9 8 9 9 9 9 11 13 11 10 9 6 7 7 5 6 6 6 5 6 6 6 5 7 5 5 6 6 6 6 4 6 8 4 1 4 6 5 5 5 3 4 4 3 2 4 4 5 6 6 6 6 7 8 9 8 10 10 8 10 12 14 14 15 15 16 16 17 17 17 17 16 14 12
9 10 9 9 14 15 15 14 14 14 14 13 10 8 7 7 6 7 6 6 6 6 6 8 6 7 8 7 6 6 5 4 4 5 5 5 4 3 5 5 3 2 1 4 5 5 4 4 5 5 5 4 4 5 6 5 6 7 10 12 14 15 15 15 16 17 17 17 17 17 17 17 15 13
10 9 9 9 11 13 14 13 15 15 15 15 16 16 14 11 9 7 7 7 6 6 7 7 5 7 9 9 5 5 6 4 5 6 3 3 2 3 5 9 6 0 1 3 4 6 4 3 5 5 4 3 4 5 4 5 8 9 12 14 14 15 15 15 15 16 17 18 18 18 17 16 15 14
10 10 9 8 8 8 9 10 10 12 15 16 16 17 16 15 14 13 10 9 6 6 7 7 8 6 8 8 3 4 2 6 5 4 2 2 2 4 5 4 6 3 1 3 4 6 4 2 2 4 3 4 4 5 4 8 11 12 14 14 14 14 14 15 15 16 17 17 17 18 18 16 15 13
10 10 9 9 8 8 12 11 9 8 9 13 17 16 15 14 14 14 15 14 11 7 7 8 8 8 6 7 6 4 4 2 3 2 4 4 3 3 5 6 4 6 1 4 3 4 5 3 2 3 3 3 3 4 5 10 14 12 12 12 13 14 15 15 15 16 17 17 17 17 17 16 15 14
11 11 10 10 9 9 9 9 9 8 8 8 8 8 9 9 13 14 15 15 14 8 7 8 10 8 5 8 6 4 3 3 6 5 6 4 3 5 6 6 5 4 3 2 1 3 2 2 3 4 4 3 4 3 6 14 13 10 10 13 15 15 15 15 15 15 17 17 18 17 17 17 17 16
11 10 10 11 11 10 9 9 10 9 9 8 8 7 8 9 9 9 10 10 9 8 8 9 10 10 6 7 7 6 4 6 6 4 5 4 4 4 4 5 3 4 2 1 2 3 2 2 4 3 3 3 3 3 7 13 12 10 11 12 13 14 15 15 15 15 17 18 18 18 18 18 17 15
10 10 10 10 11 11 11 13 15 13 9 7 8 8 8 7 7 8 11 12 10 9 9 10 10 10 9 9 8 8 6 3 2 2 2 2 2 1 3 6 4 2 1 1 2 2 1 0 2 2 3 1 2 3 5 9 11 10 11 11 11 14 14 14 14 14 16 16 18 19 19 18 17 13
10 9 10 10 11 11 11 14 15 15 12 7 8 7 8 7 6 9 7 10 14 15 15 15 15 15 15 14 13 11 9 5 1 1 1 5 3 3 5 6 4 4 1 1 1 2 2 1 1 3 3 1 1 3 5 5 8 9 10 11 12 13 13 14 14 15 15 16 16 17 19 19 16 10
8 10 16 14 12 12 12 16 16 17 12 10 10 10 9 9 9 9 6 4 7 13 14 14 14 13 12 11 12 11 11 9 4 5 7 5 2 5 5 6 5 4 2 3 3 1 2 0 0 1 4 2 1 2 4 5 4 7 8 10 11 13 13 13 14 14 14 14 16 16 17 18 14 7
8 9 12 18 16 14 15 17 17 18 14 11 11 11 9 10 11 11 7 7 6 4 4 6 7 8 10 9 7 8 12 8 8 8 8 6 6 7 7 7 4 4 4 3 3 1 1 1 1 1 3 2 3 1 3 3 3 4 4 5 6 11 12 13 13 13 14 11 15 15 15 16 13 7
8 9 9 12 17 20 19 17 17 17 16 13 11 9 9 10 13 10 5 6 6 6 7 7 6 8 5 4 4 4 5 5 6 8 8 8 8 8 8 7 6 6 4 3 4 2 1 1 0 0 1 1 1 3 4 4 3 4 5 6 6 10 10 11 9 12 14 10 14 15 15 15 14 7
10 9 10 10 13 17 17 16 16 16 16 16 12 11 11 11 13 7 4 6 10 7 6 6 5 5 3 4 4 5 5 6 6 7 8 9 8 8 8 7 6 7 5 4 7 3 3 2 2 1 0 1 1 1 3 2 2 5 6 6 6 7 7 7 6 7 9 10 12 14 14 14 15 11
9 10 10 10 14 18 17 16 14 14 13 16 10 12 14 14 12 8 6 5 4 6 6 5 5 4 4 5 5 5 6 6 6 7 8 9 9 8 8 8 8 6 6 5 9 5 6 2 3 2 0 1 1 0 3 4 3 6 5 6 5 5 6 6 6 7 7 6 7 9 10 13 13 14
11 11 11 12 16 17 17 15 15 15 15 10 10 15 14 13 12 8 5 4 5 5 5 5 6 5 5 5 6 6 6 6 6 7 7 7 7 7 7 6 6 7 5 6 5 5 4 2 2 3 2 1 1 2 1 3 4 6 6 7 6 5 6 5 6 7 7 7 6 12 10 9 11 11
11 11 11 12 16 16 15 15 15 15 14 11 14 15 16 15 12 6 5 4 5 4 5 6 6 7 6 6 6 6 6 6 6 6 5 4 4 5 5 4 3 3 5 5 5 4 5 4 3 1 5 5 4 2 2 1 2 3 6 6 4 4 6 6 5 5 5 5 5 7 7 8 9 9
11 13 16 16 16 15 15 15 13 10 12 16 15 16 16 12 5 6 6 6 5 6 7 8 7 7 7 8 7 6 4 2 1 0 1 0 1 2 3 2 2 2 3 4 4 4 5 6 5 4 3 2 6 2 1 1 1 3 3 4 5 4 5 6 6 5 5 6 5 6 7 7 7 7
18 16 16 17 14 11 9 7 6 7 10 14 16 15 9 4 6 6 6 6 7 8 9 8 8 9 6 6 6 4 3 3 5 5 5 4 3 3 4 3 1 2 1 3 4 4 5 5 6 6 5 4 5 5 2 1 1 3 2 1 4 4 2 6 6 5 5 6 5 5 5 5 6 7
11 11 9 5 7 8 11 13 12 11 10 7 6 6 6 7 7 8 8 8 9 9 8 8 8 7 6 2 1 4 5 6 6 6 6 6 6 5 3 4 3 3 1 2 3 3 3 5 6 7 7 4 3 4 3 3 0 3 3 2 2 1 4 5 5 5 5 5 4 4 4 5 6 8
11 4 2 1 1 4 4 6 5 6 6 6 6 6 6 7 6 7 7 7 6 6 6 6 5 5 4 5 6 5 6 7 6 4 5 6 5 4 4 3 2 3 2 3 3 4 4 2 2 4 7 8 5 2 2 2 1 1 3 2 1 4 4 5 5 5 4 4 3 6 5 6 7 7
5 3 3 3 4 5 8 7 7 6 5 5 5 5 4 5 5 6 6 8 9 8 7 8 8 8 6 6 5 5 5 6 5 5 5 4 6 4 4 5 5 6 6 6 3 3 4 4 4 4 5 3 3 6 5 1 1 1 2 3 2 4 5 5 4 4 5 3 5 4 6 5 5 6
6 6 7 7 7 7 7 7 7 7 6 6 5 5 4 5 5 6 7 8 8 7 8 8 8 8 6 6 6 6 7 5 5 6 8 7 7 7 7 7 6 7 8 8 6 6 4 3 4 5 5 4 3 2 4 4 2 2 4 2 1 3 4 4 3 3 3 1 1 4 5 6 5 5
9 8 9 9 9 10 8 8 9 7 6 6 6 6 6 6 7 7 7 8 7 8 8 8 8 7 7 7 7 7 7 7 6 5 4 6 6 7 7 7 7 7 8 7 7 6 6 6 5 5 3 3 2 2 2 2 3 3 2 3 3 4 4 2 2 2 2 3 2 2 3 3 6 6
8 9 9 10 11 10 9 10 8 6 6 6 6 6 6 7 7 8 9 9 8 8 8 8 8 7 7 7 7 7 7 7 6 6 6 7 7 5 5 6 7 7 6 7 7 6 6 7 6 6 4 2 1 1 4 4 5 5 5 2 1 2 4 3 2 1 2 2 1 1 3 2 4 6
8 9 10 11 10 9 9 9 7 7 7 7 7 7 7 7 8 9 10 9 8 8 9 8 8 7 7 6 6 5 5 7 7 7 7 6 6 6 7 6 5 5 6 6 7 8 6 6 5 6 6 5 5 5 6 1 4 5 5 4 2 3 4 2 1 2 2 1 1 0 1 0 2 3
11 10 10 10 10 9 8 7 7 6 7 7 7 7 7 8 8 9 8 7 8 7 8 8 8 7 6 6 6 6 6 6 6 7 6 6 7 7 7 6 5 5 6 5 6 7 7 6 7 6 6 6 5 4 3 1 1 5 11 7 5 4 2 2 2 4 2 1 2 2 1 0 1 1
9 9 9 9 9 7 7 6 6 7 7 7 7 8 8 8 7 7 7 7 7 8 7 7 7 7 8 8 8 8 8 7 7 8 8 7 7 7 5 5 5 3 4 5 5 5 5 6 6 6 7 6 6 6 6 5 7 4 5 12 5 4 4 6 6 3 3 2 4 3 3 3 4 6
10 8 8 8 8 8 8 7 7 8 7 8 8 8 8 8 8 8 7 7 7 7 8 9 8 8 8 8 8 7 8 9 9 8 8 6 5 5 5 6 6 6 5 6 6 5 6 7 7 7 7 8 5 3 4 3 0 1 1 5 10 8 6 6 6 4 2 5 1 0 4 3 3 3
8 8 8 8 7 7 7 7 7 7 7 7 7 8 8 8 8 8 7 7 6 7 7 7 7 8 8 8 8 9 8 6 5 5 6 7 7 7 7 6 5 6 7 7 7 7 8 8 10 10 4 4 5 5 3 0 3 3 5 6 7 11 10 7 5 5 4 2 5 4 3 3 3 2
7 6 2 2 4 5 5 6 6 6 7 7 7 7 7 5 6 5 5 5 5 6 5 6 6 6 7 7 7 6 7 7 6 6 6 6 6 6 6 7 7 6 7 7 8 9 9 6 1 4 5 5 5 4 5 6 7 5 4 5 5 7 11 12 10 8 5 3 5 2 1 1 1 2
5 3 2 2 2 2 1 2 2 4 6 6 5 4 5 5 5 6 6 7 7 7 7 7 7 7 7 7 7 6 7 7 6 5 5 5 6 6 6 6 6 7 7 7 6 6 6 4 3 6 6 6 6 6 7 8 7 5 3 3 5 4 5 8 9 10 9 9 8 5 4 3 3 2
5 6 6 5 5 5 4 4 4 4 3 1 3 6 6 7 6 6 8 8 8 7 7 7 7 8 8 7 6 5 5 5 5 5 5 5 5 6 6 6 5 5 5 5 5 6 5 5 5 5 6 7 6 6 8 7 7 7 7 4 2 3 7 5 4 5 7 8 11 12 11 10 9 6
7 7 6 6 6 6 6 6 6 6 5 4 2 1 3 4 6 5 4 5 5 6 6 6 6 6 6 6 6 6 5 4 5 4 4 3 5 5 5 5 5 5 5 6 6 6 5 5 3 3 4 6 4 7 8 7 8 5 4 4 6 6 6 4 6 8 7 7 9 12 11 8 6 6
Wind_Direction
219 220 224 220 231 235 214 216 230 214 172 178 170 151 161 161 137 249 305 284 255 306 349 311 294 8 35 177 212 232 251 259 255 244 237 241 246 250 247 246 248 250 251 252 253 254 254 256 257 260 262 264 263 263 262 263 263 262 262 262 263 262 262 261 259 257 255 253 252 250 248 246 241 241
219 219 221 219 235 244 219 200 210 194 183 158 166 174 168 150 156 176 193 273 221 251 310 230 266 324 344 314 290 198 234 241 250 254 254 252 252 253 252 251 251 251 252 254 255 257 258 260 262 264 266 267 267 267 267 267 267 267 267 266 266 266 266 265 263 260 257 255 251 250 247 246 242 243
219 227 227 228 235 247 245 238 189 195 173 187 171 170 146 166 146 159 143 203 287 182 255 296 275 307 313 310 316 308 283 276 265 259 255 254 253 258 266 264 259 256 256 256 259 261 263 264 265 266 266 267 267 268 269 270 271 271 272 272 271 271 270 269 267 265 262 260 258 256 253 251 248 246
219 222 232 229 226 233 231 247 228 192 189 183 183 173 172 178 169 148 154 183 256 234 207 246 279 277 268 296 302 290 291 286 284 273 274 269 274 278 271 273 268 264 262 262 261 263 263 263 264 265 266 267 269 270 271 272 275 276 275 275 275 275 273 272 270 269 268 267 266 264 261 257 254 249
221 220 226 236 231 224 208 220 222 208 202 181 193 187 168 178 173 159 173 202 258 288 246 245 251 264 255 297 220 259 285 298 295 285 267 272 274 272 271 273 275 271 267 263 263 263 265 265 266 266 268 271 275 276 279 281 281 280 279 277 275 274 275 276 276 276 277 276 273 270 267 264 261 255
220 218 224 241 243 220 216 214 219 211 191 186 201 213 196 202 199 199 165 213 224 269 308 296 291 276 200 249 234 237 279 285 288 290 289 280 258 267 271 272 272 271 268 267 265 267 269 270 271 274 280 283 283 285 285 284 284 286 288 289 288 284 281 282 283 283 282 279 276 273 271 268 265 262
214 217 223 235 239 237 231 232 227 216 217 203 199 216 202 213 221 203 202 187 226 251 271 255 278 270 271 225 272 265 250 262 274 288 288 286 286 264 257 263 269 272 270 269 270 271 273 274 279 286 288 289 290 289 289 290 291 292 299 303 304 305 302 294 289 286 283 281 278 274 273 271 267 263
211 217 222 232 230 228 227 233 230 226 219 219 218 223 219 207 222 216 204 209 215 228 251 274 220 256 250 272 263 266 271 275 282 273 287 290 284 285 283 269 270 274 274 276 279 280 281 284 288 289 291 289 287 288 292 296 303 316 319 321 322 321 318 313 306 302 299 293 286 281 276 274 273 267
210 217 219 227 220 213 224 233 227 221 221 224 221 226 229 215 221 222 208 219 215 230 246 269 256 240 257 255 268 258 277 290 283 285 280 283 287 290 284 288 277 277 278 276 280 283 287 291 292 296 292 288 291 300 302 320 332 326 334 344 347 343 339 334 331 327 323 315 306 296 286 278 273 271
216 215 221 225 213 209 214 228 226 221 222 223 226 233 234 223 215 222 231 220 221 224 243 248 286 271 255 302 271 248 235 275 294 294 284 292 288 283 303 296 288 289 292 303 299 306 320 315 322 308 306 312 319 316 342 349 351 12 12 2 352 344 339 339 339 338 337 334 328 320 309 295 284 276
224 222 224 223 214 212 216 223 224 221 225 219 228 228 231 229 212 219 224 219 222 225 242 258 246 270 269 238 279 282 241 257 253 283 302 297 281 303 284 292 292 288 291 280 290 298 302 315 308 321 322 321 326 339 19 31 33 17 4 354 346 342 346 347 349 348 345 342 338 332 324 312 296 279
225 225 225 224 218 215 218 220 227 214 222 218 230 231 224 226 221 230 229 220 219 228 235 242 259 256 278 288 264 313 1 315 291 233 257 291 304 309 296 252 282 300 307 310 336 316 327 331 331 331 323 341 339 10 40 40 26 6 352 349 348 357 2 0 356 352 348 346 343 339 334 325 314 298
226 227 228 229 226 219 221 220 223 220 214 208 223 234 213 222 220 232 236 231 232 243 244 265 261 272 278 267 278 288 270 254 264 269 222 274 283 296 314 296 266 248 276 307 354 326 345 346 333 332 340 349 346 45 46 27 8 356 351 2 15 17 10 3 357 353 350 348 346 343 339 333 323 313
227 229 229 231 230 228 227 225 225 227 224 221 219 225 205 215 214 222 228 231 227 228 241 250 253 266 265 263 247 257 252 245 272 291 284 273 285 327 305 286 252 277 331 346 339 328 333 356 323 340 359 336 19 60 42 12 352 350 13 27 24 16 8 2 359 357 354 350 347 343 340 334 328 322
225 229 229 233 237 235 235 231 227 227 229 230 231 234 226 212 204 212 221 232 221 216 232 243 243 244 262 263 243 239 260 253 246 259 248 235 322 340 340 319 317 263 67 358 337 319 328 11 340 334 356 6 33 66 44 9 5 24 37 34 23 13 7 3 0 359 356 355 352 349 343 338 335 330
225 228 228 229 230 232 230 231 233 230 233 234 235 237 239 235 226 216 208 221 225 220 231 241 237 235 246 266 240 248 238 260 262 249 245 240 283 308 309 288 287 263 45 4 332 310 308 19 3 353 356 24 30 76 60 19 25 42 41 31 19 11 7 4 3 1 360 357 356 357 353 348 345 341
221 225 229 233 231 233 230 231 230 229 235 236 238 241 243 246 241 238 233 225 220 206 222 234 246 226 239 256 255 205 217 180 232 265 277 279 276 265 277 268 281 301 24 1 330 308 311 15 20 11 353 16 34 41 25 19 37 44 41 27 17 14 10 5 3 2 1 359 357 356 356 354 353 350
218 218 221 227 234 233 233 233 231 229 231 235 239 240 239 240 246 243 241 243 246 239 224 225 244 243 187 239 249 229 192 223 254 259 266 253 270 277 265 272 274 286 346 301 315 309 301 2 38 358 325 355 44 30 18 31 38 45 37 25 19 12 6 3 4 3 1 359 357 353 353 355 358 355
217 217 218 223 230 234 230 226 225 228 230 229 232 236 239 236 239 238 238 233 225 221 224 228 236 248 221 231 247 257 230 223 238 233 249 249 247 264 290 298 262 290 309 157 106 240 266 329 32 320 307 340 41 4 19 33 39 44 33 22 16 10 5 1 3 2 1 1 358 354 351 354 357 352
219 217 216 219 227 233 236 233 224 223 221 222 228 232 240 244 240 240 235 234 230 224 223 227 235 241 243 238 242 246 247 234 218 245 281 292 265 272 303 279 303 270 290 129 143 223 279 339 73 283 288 27 47 360 30 23 40 39 27 14 13 11 3 360 1 2 2 3 3 1 358 356 355 351
219 217 216 217 222 229 234 237 230 226 216 221 224 227 236 238 240 248 243 227 228 230 229 230 235 243 247 251 257 266 270 252 205 136 302 267 209 220 265 275 280 271 231 278 162 155 260 317 62 310 289 15 108 26 21 21 32 27 18 9 12 9 2 359 1 2 1 4 4 2 2 1 358 358
222 219 217 214 220 225 231 231 230 233 222 229 234 237 241 245 247 255 240 214 229 229 234 237 242 249 259 266 269 270 266 246 172 185 225 235 177 236 230 255 258 279 274 223 167 137 222 309 16 332 312 11 108 12 16 27 18 12 5 4 11 9 1 358 359 0 360 5 5 1 0 3 4 12
222 226 227 224 222 222 228 225 223 227 222 230 232 232 235 243 246 245 231 220 227 212 218 243 241 254 248 248 247 256 258 241 199 203 220 222 207 232 239 246 272 292 277 252 171 180 276 70 342 85 29 355 289 267 10 25 17 4 1 0 9 10 4 358 355 357 358 8 11 2 358 2 8 11
226 226 229 231 231 228 227 223 219 221 215 222 235 230 229 235 244 245 219 215 211 222 213 228 220 232 236 234 232 237 243 225 202 209 214 215 209 216 229 233 215 227 230 235 168 168 186 115 169 28 148 173 296 299 339 348 6 360 1 4 16 7 3 358 355 354 356 6 18 5 359 360 7 7
229 229 230 233 226 224 227 223 219 218 215 218 228 229 230 229 237 243 212 221 211 211 215 220 220 224 214 217 215 218 224 220 211 212 219 220 210 206 217 228 226 235 223 212 177 135 178 163 187 129 5 107 179 328 286 303 328 10 2 8 10 4 4 358 352 352 354 0 19 5 358 358 3 12
231 231 230 231 231 225 222 220 216 216 215 219 223 237 237 245 250 247 233 221 214 220 218 218 223 213 188 190 201 215 219 220 212 215 220 221 219 215 214 212 214 230 224 196 160 152 130 149 185 141 186 80 300 50 336 327 318 358 357 4 13 359 358 352 351 352 355 357 8 5 348 353 3 2
228 229 231 235 235 231 229 224 216 215 219 215 225 237 245 249 251 251 250 236 224 225 224 215 219 207 198 197 211 213 221 222 209 212 220 220 214 217 220 219 213 223 207 162 177 148 120 148 182 138 159 157 113 335 29 1 329 337 354 2 353 351 350 352 357 355 356 355 5 355 351 355 7 6
227 230 230 232 233 228 224 224 221 215 209 214 226 231 238 242 244 243 249 242 228 221 217 219 220 221 219 217 217 218 218 216 201 202 201 203 198 190 188 191 184 175 143 147 158 141 129 125 157 159 137 141 126 80 334 290 293 329 344 327 326 332 350 354 346 346 350 346 358 360 356 359 359 4
228 229 230 232 231 225 220 220 224 227 220 220 226 228 232 237 237 231 228 231 218 218 225 225 226 228 222 216 219 214 213 202 157 138 305 101 120 119 125 140 126 110 109 133 134 135 138 141 151 147 111 114 114 169 142 229 281 314 340 346 345 325 336 342 334 338 340 349 354 358 359 353 356 4
230 231 230 230 231 227 220 208 211 220 224 221 222 230 229 213 215 212 213 216 211 223 227 225 226 231 225 221 221 216 195 164 199 189 179 165 181 157 144 118 96 23 79 129 134 132 134 142 147 135 104 95 124 142 167 128 330 300 322 9 290 300 304 335 329 326 351 357 350 350 343 355 353 9
246 245 248 244 225 216 206 208 212 218 225 220 216 210 207 207 209 210 206 210 213 223 226 226 228 232 229 223 176 213 206 217 217 196 183 177 186 173 165 141 131 72 33 96 126 133 144 149 147 133 120 125 98 140 171 136 183 318 314 326 10 356 294 318 316 340 346 347 340 334 343 357 3 13
235 234 73 69 169 219 233 235 241 234 224 216 204 201 196 205 206 211 218 229 237 239 225 231 233 239 213 213 217 207 209 220 224 187 178 175 178 165 134 124 127 102 122 131 70 37 55 59 121 131 137 154 147 189 118 104 168 262 297 306 309 283 289 296 320 329 333 333 346 7 360 6 3 3
197 156 178 193 196 201 214 216 218 215 207 209 203 189 182 187 187 193 186 207 218 219 209 221 222 231 216 223 207 207 216 225 213 171 169 164 150 138 147 152 158 162 163 172 112 51 42 45 45 77 95 97 129 151 140 101 292 217 232 281 316 295 294 290 307 322 319 0 18 358 1 358 360 355
197 201 218 218 216 220 217 217 216 215 206 199 194 208 190 185 189 197 206 214 219 206 210 217 216 221 211 221 205 200 211 210 193 183 177 171 164 159 173 170 182 182 171 168 159 151 127 96 89 63 62 60 42 124 145 138 189 249 229 254 268 276 270 279 299 315 342 346 353 7 2 351 343 345
200 207 210 218 221 225 222 224 228 221 213 213 202 198 198 204 205 204 212 218 211 208 212 215 216 213 203 215 203 201 199 192 184 167 162 155 167 172 176 182 186 182 181 174 160 159 146 145 129 94 38 7 4 319 214 154 140 224 265 267 223 240 278 274 270 310 351 349 28 39 338 338 348 339
203 209 212 220 224 220 220 226 226 213 210 210 205 198 195 212 208 206 219 215 204 210 209 211 215 212 210 210 207 199 191 182 178 175 166 173 177 183 184 196 194 190 177 172 161 162 155 155 153 137 134 140 112 303 305 196 169 166 177 238 234 216 261 275 268 296 5 2 4 92 53 345 324 322
208 209 214 222 225 216 222 223 215 209 204 206 207 205 209 212 214 214 222 206 205 205 206 205 213 212 211 207 200 195 177 172 182 185 182 174 170 176 188 194 188 170 167 183 165 163 156 160 178 145 136 150 170 204 243 290 243 217 170 201 248 220 230 254 235 297 273 197 326 141 173 223 288 301
210 207 210 219 222 219 218 218 205 204 208 209 210 213 217 222 221 221 217 202 209 207 205 206 213 204 201 185 179 179 180 187 175 176 179 171 174 196 194 176 179 179 185 167 163 168 173 158 168 178 162 174 197 219 255 294 334 250 194 185 201 230 172 165 238 250 263 242 203 246 152 198 245 259
215 212 207 214 216 211 214 211 203 210 209 207 211 218 221 226 228 229 219 215 205 204 202 203 196 191 187 188 183 174 174 174 179 186 186 189 190 187 174 166 175 181 137 144 160 156 158 168 179 180 180 179 186 205 187 180 225 260 200 192 188 174 201 186 224 233 233 264 270 284 258 246 271 268
212 207 205 204 210 195 199 197 202 208 204 210 215 219 221 227 226 226 222 213 207 201 196 198 186 178 187 183 181 183 184 186 187 186 188 183 190 186 180 177 176 161 148 152 163 184 188 199 188 187 194 200 196 161 151 161 234 307 276 228 211 201 200 171 208 194 244 228 158 233 282 346 327 324
206 206 212 204 198 187 187 200 207 200 207 215 220 223 222 225 220 217 211 202 187 181 188 185 180 184 184 181 185 183 187 187 178 169 172 182 190 190 186 174 169 162 158 173 182 188 207 207 211 194 148 105 101 99 71 320 270 257 240 244 211 216 220 196 195 180 222 170 162 191 230 244 251 323
205 210 189 167 192 187 205 210 203 207 217 215 218 222 221 210 209 179 155 144 165 176 164 164 165 162 169 183 182 172 170 170 162 165 172 167 173 173 171 169 167 164 160 179 194 205 216 216 179 115 111 125 122 144 218 224 244 249 242 258 261 211 210 221 227 225 222 166 145 156 272 320 24 307
176 157 124 83 58 88 160 201 228 232 233 227 219 181 150 156 156 145 149 165 173 165 165 161 158 156 163 177 170 162 162 163 163 161 156 164 165 168 175 181 173 174 182 196 206 211 218 196 153 143 145 163 190 172 214 230 233 234 242 247 236 219 224 216 220 227 232 236 237 211 168 164 134 247
88 81 61 60 65 54 42 35 40 34 357 299 180 162 169 164 154 156 169 176 168 160 152 147 153 160 171 168 139 125 144 156 152 144 146 168 176 179 179 188 184 187 187 181 197 223 216 194 192 165 161 198 193 183 224 233 245 237 234 223 219 198 224 232 241 263 267 258 243 240 240 227 226 258
63 62 60 50 48 39 35 28 26 21 27 14 5 82 108 115 133 145 135 122 123 132 142 149 153 161 167 162 157 166 156 134 134 141 135 146 171 191 197 187 186 193 195 189 183 218 208 199 168 150 201 226 194 206 221 211 228 241 234 220 237 219 217 187 205 233 241 262 240 223 228 223 234 271